Airfield :
LOGIN :

Register | Disclaimer

   EN    FR    IT 

 










Legend :    VFR   Marginal VFR   IFR   Intensive IFR   Very Intensive IFR
Visi :
Ceiling :
>= 8 km
>= 3000ft
5 to 8 km
1000 to 3000 ft
1500m to 5 km
500 to 1000 ft
800 to 1500m
200 to 500 ft
< 800m
< 200 ft
Symbols :   Thunderstorms  Fog  Heavy snow  Heavy precipitations  Wind > 20 kt
SIGMETs :     Misc.  Thunderstorms  Icing  Turbulence  Mountain Waves  Volcanic Ashes







- Airport Elevation : 195 ft
- Download approach charts


LFMY - Salon de Provence

CURRENT METAR :
  • 251430Z AUTO 21008KT CAVOK 27/13 Q1016

EXPIRED METARs :
  • 251400Z AUTO 20008KT 160V230 CAVOK 27/12 Q1016
  • 251334Z AUTO 21008KT 180V240 9999 NCD 27/12 Q1016
  • 251300Z AUTO 21007KT 170V250 CAVOK 27/12 Q1016
  • 251230Z AUTO 21005KT 170V260 CAVOK 27/14 Q1016
  • 251200Z AUTO 19005KT 110V230 CAVOK 26/14 Q1016

Expired Forecast.
No reported NOTAMs for that airfield.



MET'MAP, your aeronautical weather chart ! - Copyright ORBIFLY December 2007 - Disclaimer

ORBIFLY MET'MAP TEAM :

Programming & Development : Alexandra Zaïnal
Concept & Development : Baudouin d'Aumeries
Co-Development & Prog : Marc-Olivier Méhu
Technical & hardware support : Manuel Goepfert

Contact : metmap@orbifly.com




SOURCES & CREDITS :

   NOAA